AirNav   Air Wisconsin pilot careers
 
 956 users online  

1K7 Fredonia Airport
Fredonia, Kansas, USA

GOING TO FREDONIA?


FAA INFORMATION EFFECTIVE 11 OCTOBER 2018

Location

FAA Identifier: 1K7
Lat/Long: 37-34-50.5000N / 095-50-13.6000W
37-34.841667N / 095-50.226667W
37.5806944 / -95.8371111
(estimated)
Elevation: 882 ft. / 269 m (estimated)
Variation: 06E (1985)
From city: 2 miles N of FREDONIA, KS
Time zone: UTC -5 (UTC -6 during Standard Time)
Zip code: 66736

Airport Operations

Airport use: Open to the public
Activation date: 06/1947
Control tower: no
ARTCC: KANSAS CITY CENTER
FSS: WICHITA FLIGHT SERVICE STATION
NOTAMs facility: ICT (NOTAM-D service available)
Attendance: UNATNDD
Pattern altitude: 1682 ft. MSL
Wind indicator: yes, WIND SOCK FADED.
Segmented circle: no
Beacon: white-green (lighted land airport)
Operates sunset to sunrise.

Airport Communications

CTAF: 122.9
WX ASOS at CNU (17 nm E): 127.075 (620-431-6781)

Nearby radio navigation aids

VOR radial/distance  VOR name  Freq  Var
CNUr252/11.9CHANUTE VOR/DME109.2005E
OSWr302/39.5OSWEGO VOR/DME117.6008E

 
NDB name  Hdg/Dist  Freq  Var  ID
COFFEYVILLE332/31.921205ECFV -.-. ..-. ...-

Airport Services

Parking: tiedowns
Airframe service: NONE
Powerplant service: NONE
Bottled oxygen: NONE
Bulk oxygen: NONE

Runway Information

Runway 17/35

Dimensions: 4579 x 45 ft. / 1396 x 14 m
Surface: concrete, in fair condition
Runway edge lights: low intensity
Runway edge markings: NSTD SMALL BSC MARKINGS.
RUNWAY 17  RUNWAY 35
Latitude: 37-35.219000N37-34.464333N
Longitude: 095-50.224500W095-50.229000W
Elevation: 882.0 ft.874.0 ft.
Traffic pattern: leftleft
Runway heading: 174 magnetic, 180 true354 magnetic, 000 true
Markings: NSTD, in fair conditionNSTD, in fair condition
Obstructions: 29 ft. pole, 548 ft. from runway, 68 ft. left of centerline, 12:1 slope to clear15 ft. road, 200 ft. from runway

Airport Ownership and Management from official FAA records

Ownership: Publicly-owned
Owner: CITY OF FREDONIA
314 N 7TH ST
FREDONIA, KS 66736
Phone 620-378-2231
Manager: MIKE OHRT - CITY ADMINISTRATOR
314 N 7TH ST
FREDONIA, KS 66736
Phone 620-378-2231
JACK LETTERMAN, STREETS SUPERINTENDENT IS CO-MANAGER OF AIRPORT FACILITY.

Airport Operational Statistics

Aircraft based on the field: 5
Single engine airplanes: 5
    
Aircraft operations: avg 67/week *
86% local general aviation
14% transient general aviation
* for 12-month period ending 02 May 2017

Additional Remarks

WILDLIFE ON & INVOF ARPT.
A DRAINAGE DITCH 70 FT LEFT OF AER 17 RUNS PARL 700 FT.

Instrument Procedures

There are no published instrument procedures at 1K7.

Some nearby airports with instrument procedures:

2K7 - Neodesha Municipal Airport (13 nm SE)
KCNU - Chanute Martin Johnson Airport (17 nm E)
KPPF - Tri-City Airport (22 nm SE)
KIDP - Independence Municipal Airport (26 nm S)
13K - Lt. William M. Milliken Airport (27 nm NW)
 
Loc | Ops | Rwys | IFR | FBO | Links
Com | Nav | Svcs | Stats | Notes

Kansas City Aviation Department
 
Area around 1K7 (Fredonia Airport)
 
Road maps at: MapQuest Bing Google
 
Aerial photo
WARNING: Photo may not be current or correct
Aerial photo of 1K7 (Fredonia Airport)
Photo taken 06-Nov-2004

Do you have a better or more recent aerial photo of Fredonia Airport that you would like to share? If so, please send us your photo.

 
Sectional chart

 
Airport distance calculator
Flying to Fredonia Airport? Find the distance to fly.

From to 1K7

Sunrise and sunset
Times for 16-Oct-2018
 Local
(UTC-5)
 Zulu
(UTC)
Morning civil twilight07:0712:07
Sunrise07:3412:34
Sunset18:4423:44
Evening civil twilight19:1100:11

Current date and time
Zulu (UTC)  17-Oct-2018 01:24:24
Local (UTC-5)  16-Oct-2018 20:24:24
 
METAR
KCNU 
18nm E 
170052Z AUTO 23004KT 10SM CLR 09/03 A3026 RMK AO2 SLP252 T00940033
KPPF 
22nm SE 
170052Z AUTO 00000KT CLR 07/06 A3028 RMK AO2 SLP259 T00670056
KIDP 
25nm S 
170055Z AUTO 00000KT 10SM CLR 11/04 A3028 RMK AO2 T01070039
KK88 
27nm NE 
170055Z AUTO 18003KT 10SM CLR 07/04 A3027 RMK AO1 T00660042
KCFV 
33nm SE 
170052Z AUTO 00000KT 10SM CLR 10/07 A3027 RMK AO2 SLP253 T01000067
TAF
KCNU 
18nm E 
161720Z 1618/1718 22007KT P6SM SCT250 FM162100 VRB03KT P6SM SCT200
NOTAMs
Click for the latest NOTAMs
NOTAMs are issued by the DoD/FAA and will open in a separate window not controlled by AirNav.

 

 
 

Would you like to see your business listed on this page?

 If your business provides an interesting product or service to pilots, flight crews, aircraft, or users of the Fredonia Airport, you should consider listing it here.  To start the listing process, click on the button below
 
Add a business
 

Other Pages about Fredonia Airport

Update a link
 
Copyright © AirNav, LLC. All rights reserved. Privacy Policy  Contact